STARLINK-11162, 60123

Orbit data source: Space-Track

STARLINK-11162, 60123 is a payload satellite owned by SpaceX/Seattle (US) in LEO that was launched on Mon, 24 Jun 2024 UTC via an FALCON 9 launch vehicle from the Air Force Western Test Range (AFWTR). Payload-class satellites include a variety of spacecraft equipped with specific instruments for various scientific and technological missions. These include communications satellites like Starlink; space stations such as the ISS; scientific satellites like the Hubble; Earth observation satellites from companies like Planet Labs, Umbra, and HawkEye 360; GPS; miniature CubeSats for education and research; and military/defense satellites.

Loading next visibility...
Identifier
60123, 2024-118L
Orbit
LEO
Country
Flag of USUS
Related business
Manufacturer
SpaceX/Seattle
Mission
Operational Commercial Communications
Bus & Motor
STARLINK V2MD, Unknown motor
Mass
960 kg wet, ~910 kg dry
Launch date (UTC)
2024-06-24 (1 year ago)
Launch vehicle
FALCON 9
Launch site
Air Force Western Test Range (AFWTR)
Object type
Payload
Rocket body
Debris
Shape & HBR
Box + 2 Pan, 18.1 m
Radar Cross Section
36.964 m², Large (>1 m²)

Expand to show TLE details & history
Last TLE update: 1 day ago

TLE from 1 day ago
0 STARLINK-11162
1 60123U 24118L   25306.51743855  .00006103  00000-0  55251-4 0  9994
2 60123  53.1572 127.8674 0001327  72.4455 287.6708 15.69685699 78021
Epoch: 2025-11-02T12:25Z
TLE epoch observation values (Epoch: 2025-11-02T12:25:06.690Z)
Latitude
-0.00002°
Longitude
-100.44252°
Altitude
360.44 km
Speed
7.694 km/s
True Right ascension
08h 31m 28s
True Declination
0° 00' 00"
Sunlit
Object was in daylight at epoch
Visualization orbit readout
Latitude
Unknown
Longitude
Unknown
Altitude
Unknown
Speed
Unknown
Apparent Right ascension
Unknown
Apparent Declination
Unknown
Sunlit
N/A
Visualization observer readout
Local Sidereal Time
18:30:45
Azimuth
Unknown
Elevation
Unknown
Doppler factor
Unknown
Orbital elements
Apogee altitude
360.952 km
Perigee altitude
359.163 km
Semi-major axis
6,738.194 km
Eccentricity
0.00013
Inclination
53.1572°
RAAN
127.8674°
Arg. of periapsis
72.4455°
True anomaly
287.65631°
Mean anomaly
287.6708°
Eccentric anomaly
287.66356°
Mean motion
3.92399 °/min
Orbital period
91.74 mins
BSTAR
0.000055251
Loading maneuver chart data...
Computing Atmospheric mass density...
Loading historical data...
Loading historical data...
Loading historical data...
Loading historical data...
Loading historical data...
Loading historical data...
Loading historical data...

Documentation

Showing up to 5 results
|